[[{"header":{"parameterUnit":"m.s-1","parameterCategory":2,"la1":30.2991,"la2":30.254,"lo1":-89.0895,"lo2":-89.0444,"dy":0.0017,"dx":0.0017,"nx":28,"ny":28,"refTime":"2024-03-15T03:00:00:Z","depth":"0","parameterNumber":2,"parameterNumberName":"U-component_of_CURRENTS"},"data":[0,0,0,0,0,0,0,0,0,0,0,0,0,0,0,0,0,0,0,0,0,0,0,0,0,0,0,0,0,0,0,0,0,0,0,0,0,0,0,0,0,0,0,0,0,0,0,0,0,0,0,0,0,0,0,0,0,0,0.2459,0.246,0,0.2416,0.2414,0.2413,0.2399,0.24,0.2401,0.2402,0.2366,0.2364,0.2362,0,0,0,0,0,0,0,0,0,0,0,0,0,0.2575,0.2572,0.2459,0.246,0.246,0.2416,0.2414,0.2413,0.2399,0.24,0.2402,0.2403,0.2366,0.2364,0.2362,0,0,0,0,0,0,0,0,0,0,0,0,0,0.2519,0.2571,0.2459,0.2454,0.2454,0.2416,0.2414,0.2412,0.2399,0.24,0.2402,0.2403,0.2367,0.2364,0.2361,0.2313,0,0,0.2353,0.2351,0,0,0,0,0,0,0,0,0.2522,0.2513,0.2455,0.2455,0.2454,0.2422,0.2442,0.2383,0.2398,0.241,0.2402,0.2404,0.239,0.2385,0.2361,0.2312,0.231,0.2352,0.2351,0.2349,0.2349,0,0,0,0,0,0,0,0.2526,0.2516,0.2433,0.2455,0.2455,0.247,0.2462,0.243,0.2385,0.2409,0.2411,0.2419,0.2389,0.2364,0.236,0.2309,0.2352,0.235,0.2348,0.2347,0.2316,0.2317,0,0,0,0,0,0,0.2544,0.2518,0.2435,0.2433,0.2503,0.2467,0.2458,0.2424,0.2386,0.2384,0.2418,0.2419,0.2368,0.2363,0.2359,0.2389,0.2349,0.2347,0.2345,0.2315,0.2316,0.2317,0,0,0,0,0,0,0.2546,0.2535,0.2437,0.2485,0.2475,0.2464,0.2425,0.2422,0.241,0.2394,0.239,0.2412,0.2369,0.2363,0.2375,0.2385,0.2345,0.2343,0.2314,0.2315,0.2316,0.2393,0,0,0,0,0,0,0.2548,0.2535,0.2512,0.2484,0.2473,0.2433,0.2425,0.2421,0.2417,0.2417,0.2387,0.2385,0.2369,0.238,0.2372,0.238,0.2341,0.2313,0.2314,0.2316,0.2389,0.2396,0.2403,0,0,0,0,0,0.2552,0.2528,0.251,0.2501,0.2441,0.2434,0.2428,0.2422,0.2415,0.2413,0.2416,0.2386,0.2385,0.2379,0.237,0.2376,0.2312,0.2314,0.2316,0.2386,0.2395,0.2403,0,0,0,0,0,0,0.2563,0.2524,0.2504,0.2466,0.2459,0.2436,0.2445,0.2423,0.2415,0.2427,0.2399,0.2397,0.2414,0.2382,0.2376,0.2373,0.2341,0.2342,0.2397,0.2406,0.2412,0.2412,0.2338,0,0,0,0,0,0.2554,0.2529,0.25,0.2475,0.2479,0.2456,0.2451,0.2443,0.2438,0.2434,0.2412,0.2402,0.2407,0.2401,0.2393,0.2382,0.2373,0.238,0.2387,0.2393,0.2387,0.2407,0.2416,0.2324,0.2324,0.2324,0,0,0.2561,0.2532,0.2522,0.2478,0.2477,0.2469,0.2456,0.2463,0.2451,0.2432,0.2421,0.2427,0.2414,0.2423,0.2424,0.24,0.2416,0.2395,0.2401,0.2391,0.241,0.2419,0.2427,0.2325,0.2325,0.2324,0,0,0.2561,0.2534,0.2514,0.2513,0.251,0.2496,0.25,0.2477,0.2472,0.246,0.2464,0.2486,0.2449,0.2463,0.2461,0.2494,0.2461,0.2482,0.2504,0.2525,0.2532,0.2539,0.2551,0.2558,0.2475,0.2475,0.2475,0,0.2555,0.2523,0.2514,0.2503,0.2514,0.2509,0.2505,0.2493,0.2472,0.2475,0.2471,0.247,0.2469,0.2496,0.2522,0.2509,0.2511,0.2477,0.2535,0.2541,0.2547,0.2557,0.2563,0.2479,0.2478,0.2478,0.2477,0,0.2542,0.2529,0.2537,0.2509,0.2516,0.2528,0.2522,0.2517,0.2508,0.2493,0.2517,0.2527,0.2523,0.2535,0.2539,0.2579,0.2566,0.2553,0.2517,0.2561,0.2568,0.2574,0.2484,0.2483,0.2482,0.2481,0,0,0.2475,0.2512,0.2509,0.2524,0.2527,0.2532,0.2535,0.2532,0.2538,0.2528,0.2537,0.2568,0.2573,0.2574,0.2586,0.2611,0.2671,0.2601,0.2601,0.2617,0.2714,0.2622,0.2619,0.2672,0.2673,0.2674,0.2708,0,0.2458,0.2457,0.2474,0.2495,0.2509,0.253,0.2532,0.2537,0.254,0.2548,0.2573,0.259,0.2586,0.2605,0.263,0.2672,0.2688,0.2663,0.2664,0.2663,0.258,0.2623,0.2448,0.2456,0.2714,0.2714,0.2715,0,0.2426,0.2431,0.2446,0.2505,0.2513,0.2519,0.2548,0.2553,0.2573,0.2577,0.2597,0.2609,0.266,0.2646,0.2708,0.2693,0.2703,0.2724,0.2725,0.261,0.2581,0.245,0.2456,0.2388,0.2724,0.2723,0.2722,0,0.2394,0.2422,0.244,0.2456,0.2498,0.2514,0.2538,0.2558,0.2576,0.2603,0.2616,0.2655,0.2684,0.2712,0.2744,0.2734,0.2806,0.279,0.2707,0.2701,0.2535,0.2511,0.2472,0.2814,0.2814,0.2814,0.2814,0,0.2378,0.2399,0.243,0.2443,0.2468,0.2509,0.2541,0.2558,0.2594,0.2619,0.2636,0.2657,0.2704,0.2741,0.2761,0.2752,0.2811,0.2714,0.2704,0.2556,0.2535,0.2451,0.2437,0.2815,0.2815,0.2815,0.2815,0,0.2372,0.2386,0.2409,0.2444,0.246,0.2482,0.255,0.2576,0.26,0.2634,0.2646,0.268,0.2719,0.2752,0.2807,0.276,0.2678,0.2749,0.2567,0.2534,0.2356,0.2353,0.2215,0.2167,0.2652,0.265,0.2648,0,0.2375,0.2383,0.2406,0.2415,0.244,0.2482,0.2514,0.2565,0.2594,0.264,0.2657,0.2697,0.2704,0.2734,0.2676,0.2663,0.2612,0.247,0.2404,0.232,0.2312,0.2245,0.2213,0.2227,0.2222,0.2218,0.2214,0,0.2387,0.2389,0.2409,0.2413,0.2441,0.2476,0.2529,0.2549,0.2603,0.2611,0.2626,0.2637,0.2628,0.2517,0.2477,0.2443,0.2316,0.2381,0.2342,0.2008,0.1885,0.1842,0.2242,0.2177,0.2181,0.2184,0.2186,0.2187,0.2391,0.2406,0.2415,0.2424,0.2439,0.2453,0.2456,0.2497,0.2511,0.2477,0.2558,0.2487,0.2367,0.2273,0.2237,0.1998,0.2075,0.1879,0.1897,0.1849,0.1743,0.2056,0.1949,0.1951,0.1953,0.1955,0.1956,0,0.2393,0.2418,0.243,0.2415,0.2391,0.2416,0.2444,0.2404,0.2368,0.2354,0.2328,0.2141,0.1989,0.1878,0.1625,0.1518,0.1467,0.1469,0.1344,0.1353,0.1659,0.158,0.1327,0.1327,0.1327,0.1327,0.1327,0.1328,0.2394,0.2413,0.2419,0.2361,0.2335,0.2273,0.2259,0.2196,0.2159,0.1973,0.1825,0.1781,0.1637,0.1407,0.1202,0.1165,0.1113,0.1004,0.1111,0.1329,0.1369,0.1407,0.1329,0.1028,0.1028,0.0698,0.0696,0.0694]},{"header":{"parameterUnit":"m.s-1","parameterCategory":2,"la1":30.2991,"la2":30.254,"lo1":-89.0895,"lo2":-89.0444,"dy":0.0017,"dx":0.0017,"nx":28,"ny":28,"refTime":"2024-03-15T03:00:00:Z","depth":"0","parameterNumber":3,"parameterNumberName":"V-component_of_CURRENTS"},"data":[0,0,0,0,0,0,0,0,0,0,0,0,0,0,0,0,0,0,0,0,0,0,0,0,0,0,0,0,0,0,0,0,0,0,0,0,0,0,0,0,0,0,0,0,0,0,0,0,0,0,0,0,0,0,0,0,0,0,-0.007,-0.007,0,-0.0049,-0.0048,-0.0048,-0.0047,-0.0048,-0.0048,-0.0049,-0.0074,-0.0074,-0.0074,0,0,0,0,0,0,0,0,0,0,0,0,0,-0.0103,-0.0102,-0.007,-0.007,-0.007,-0.0049,-0.0048,-0.0048,-0.0047,-0.0048,-0.0048,-0.0049,-0.0074,-0.0074,-0.0074,0,0,0,0,0,0,0,0,0,0,0,0,0,-0.0083,-0.0102,-0.007,-0.0069,-0.0069,-0.0049,-0.0048,-0.0048,-0.0047,-0.0048,-0.0049,-0.0049,-0.0073,-0.0074,-0.0074,-0.006,0,0,-0.0075,-0.0075,0,0,0,0,0,0,0,0,-0.0085,-0.0082,-0.0069,-0.0069,-0.0069,-0.0054,-0.0069,-0.0055,-0.0047,-0.0053,-0.0049,-0.005,-0.0073,-0.0073,-0.0063,-0.0061,-0.0063,-0.0075,-0.0075,-0.0075,-0.0075,0,0,0,0,0,0,0,-0.0086,-0.0083,-0.0059,-0.0069,-0.0069,-0.0068,-0.0066,-0.0066,-0.0057,-0.0052,-0.0053,-0.0054,-0.0073,-0.0062,-0.0063,-0.0063,-0.0075,-0.0075,-0.0075,-0.0075,-0.006,-0.0059,0,0,0,0,0,0,-0.0093,-0.0084,-0.006,-0.0059,-0.0082,-0.0067,-0.0064,-0.0056,-0.0056,-0.0057,-0.0054,-0.0055,-0.0061,-0.0063,-0.0064,-0.0059,-0.0075,-0.0075,-0.0076,-0.0061,-0.006,-0.0059,0,0,0,0,0,0,-0.0094,-0.0091,-0.0061,-0.0074,-0.007,-0.0066,-0.0056,-0.0055,-0.005,-0.0058,-0.0059,-0.0051,-0.0062,-0.0064,-0.0065,-0.006,-0.0076,-0.0076,-0.0061,-0.006,-0.006,-0.0042,0,0,0,0,0,0,-0.0095,-0.0091,-0.0088,-0.0074,-0.007,-0.0049,-0.0056,-0.0054,-0.0051,-0.0052,-0.0056,-0.0058,-0.0063,-0.0065,-0.0066,-0.0061,-0.0076,-0.0062,-0.0061,-0.006,-0.0043,-0.004,-0.0038,0,0,0,0,0,-0.0096,-0.0088,-0.0087,-0.0085,-0.0065,-0.0049,-0.0046,-0.0044,-0.005,-0.0043,-0.0047,-0.0058,-0.0059,-0.0065,-0.0066,-0.006,-0.0063,-0.0061,-0.006,-0.0044,-0.0041,-0.0038,0,0,0,0,0,0,-0.01,-0.0087,-0.0086,-0.0075,-0.0064,-0.005,-0.0044,-0.0044,-0.0039,-0.0043,-0.0052,-0.0054,-0.0054,-0.0057,-0.0063,-0.0052,-0.0062,-0.0061,-0.005,-0.0047,-0.0044,-0.004,-0.0076,0,0,0,0,0,-0.0099,-0.0093,-0.0078,-0.0072,-0.0062,-0.0053,-0.0048,-0.0046,-0.0041,-0.0039,-0.004,-0.0043,-0.0046,-0.0048,-0.0048,-0.0042,-0.0041,-0.0038,-0.0035,-0.0033,-0.003,-0.0031,-0.0028,-0.0055,-0.0055,-0.0055,0,0,-0.0103,-0.0094,-0.0093,-0.0073,-0.0062,-0.0045,-0.005,-0.004,-0.003,-0.0044,-0.0029,-0.0036,-0.0043,-0.0036,-0.0035,-0.004,-0.0022,-0.0032,-0.003,-0.0027,-0.0029,-0.0027,-0.0025,-0.0054,-0.0054,-0.0054,0,0,-0.0097,-0.0092,-0.0078,-0.0068,-0.0053,-0.0044,-0.0042,-0.0024,-0.0018,-0.0006,-0.0016,-0.002,-0.0015,-0.0018,-0.0021,-0.0005,-0.0011,-0.0005,0.0013,0.0011,0.0013,0.0015,0.0033,0.0037,-0.0001,-0.0001,-0.0001,0,-0.01,-0.0079,-0.0073,-0.0054,-0.0046,-0.0043,-0.0024,-0.0014,-0.0002,0.0006,-0.0001,0.0005,-0.0006,-0.0002,0.0003,-0.0,0.0005,-0.0,0.0014,0.0016,0.0017,0.0035,0.0038,-0.0,-0.0001,-0.0001,-0.0001,0,-0.0077,-0.0064,-0.0053,-0.0029,-0.002,-0.0005,0.0008,0.002,0.0023,0.0032,0.0041,0.0031,0.0033,0.003,0.002,0.0027,0.0031,0.0015,0.0005,0.0021,0.0039,0.0042,0.0001,0.0001,0.0,0.0,0,0,-0.007,-0.0042,-0.0037,-0.0025,-0.0006,0.0005,0.0023,0.0046,0.0061,0.0067,0.0086,0.0075,0.0069,0.0065,0.0052,0.0051,0.0065,0.004,0.0039,0.0056,0.008,0.01,0.0105,0.0049,0.005,0.005,0.0094,0,-0.0049,-0.0011,-0.0005,0.002,0.0041,0.0044,0.0061,0.0074,0.0087,0.0108,0.0098,0.011,0.0083,0.0084,0.0076,0.0067,0.0072,0.0056,0.0064,0.0065,0.0078,0.0108,0.014,0.0183,0.0097,0.0097,0.0098,0,-0.0023,-0.0001,0.0033,0.005,0.006,0.0073,0.0099,0.0112,0.0134,0.0146,0.015,0.0147,0.0147,0.0121,0.0115,0.0106,0.0096,0.0089,0.009,0.0103,0.009,0.015,0.0191,0.0149,0.0102,0.0102,0.0102,0,-0.0014,0.002,0.0047,0.0054,0.008,0.0093,0.0104,0.0126,0.0149,0.0171,0.0198,0.0187,0.0201,0.0173,0.0158,0.0136,0.0161,0.0127,0.0139,0.0141,0.0167,0.0171,0.0165,0.0125,0.0125,0.0125,0.0125,0,0.0004,0.0022,0.0055,0.0068,0.0101,0.0106,0.014,0.0153,0.0182,0.0229,0.0216,0.026,0.0215,0.0225,0.0185,0.0186,0.0182,0.0155,0.0154,0.0177,0.018,0.0143,0.0115,0.0127,0.0126,0.0126,0.0126,0,0.0006,0.0028,0.006,0.0094,0.0107,0.0127,0.0167,0.0197,0.022,0.0281,0.0294,0.0326,0.0355,0.0318,0.0297,0.0244,0.0217,0.0223,0.0265,0.0267,0.0221,0.0193,0.0213,0.0201,0.0238,0.0239,0.0239,0,0.0013,0.0032,0.0078,0.0106,0.0125,0.0159,0.0192,0.0215,0.0256,0.0337,0.0377,0.0427,0.0499,0.0478,0.0404,0.0357,0.0291,0.0319,0.0271,0.0237,0.0204,0.0188,0.0175,0.0322,0.0323,0.0324,0.0325,0,0.0029,0.0045,0.0074,0.013,0.0171,0.0218,0.0266,0.0306,0.0356,0.0434,0.0547,0.0613,0.0623,0.0619,0.0537,0.0475,0.0304,0.0338,0.0288,0.0265,0.0262,0.0244,0.0283,0.0334,0.0333,0.0333,0.0332,0.0332,0.0045,0.0066,0.0109,0.016,0.0215,0.0284,0.0336,0.041,0.0506,0.065,0.0688,0.0841,0.0782,0.0702,0.06,0.042,0.0408,0.0351,0.0322,0.0311,0.0292,0.0362,0.0413,0.0413,0.0412,0.0412,0.0412,0,0.0069,0.0093,0.0139,0.0214,0.0289,0.0305,0.0398,0.0475,0.0621,0.0783,0.0918,0.1009,0.0936,0.0788,0.0553,0.0423,0.0358,0.0342,0.0315,0.03,0.0355,0.035,0.0408,0.0408,0.0408,0.0408,0.0408,0.0408,0.0084,0.0128,0.0148,0.027,0.0332,0.0433,0.0496,0.0627,0.076,0.099,0.1128,0.1211,0.1101,0.0713,0.0455,0.0381,0.0285,0.0285,0.0227,0.0244,0.0242,0.024,0.0227,0.0258,0.0258,0.0193,0.0193,0.0192]}],[{"header":{"parameterUnit":"m.s-1","parameterCategory":2,"la1":30.2991,"la2":30.254,"lo1":-89.0895,"lo2":-89.0444,"dy":0.0017,"dx":0.0017,"nx":28,"ny":28,"refTime":"2024-03-15T03:00:00:Z","depth":"2","parameterNumber":2,"parameterNumberName":"U-component_of_CURRENTS"},"data":[0,0,0,0,0,0,0,0,0,0,0,0,0,0,0,0,0,0,0,0,0,0,0,0,0,0,0,0,0,0,0,0,0,0,0,0,0,0,0,0,0,0,0,0,0,0,0,0,0,0,0,0,0,0,0,0,0,0,0.1284,0.1284,0,0.1295,0.1295,0.1295,0.1308,0.1308,0.1308,0.1308,0.1343,0.1344,0.1345,0,0,0,0,0,0,0,0,0,0,0,0,0,0.1266,0.1266,0.1284,0.1284,0.1284,0.1295,0.1295,0.1295,0.1308,0.1308,0.1308,0.1309,0.1343,0.1344,0.1345,0,0,0,0,0,0,0,0,0,0,0,0,0,0.1274,0.1266,0.1283,0.1292,0.1293,0.1295,0.1295,0.1295,0.1307,0.1308,0.1308,0.1309,0.1343,0.1344,0.1345,0.1343,0,0,0.1348,0.1349,0,0,0,0,0,0,0,0,0.1274,0.1275,0.1291,0.1292,0.1293,0.1301,0.1302,0.1313,0.1307,0.1301,0.1308,0.1309,0.1332,0.1334,0.1333,0.1345,0.1346,0.1348,0.1349,0.1349,0.135,0,0,0,0,0,0,0,0.1273,0.1274,0.1287,0.1291,0.1292,0.1293,0.1295,0.1303,0.1314,0.1302,0.1303,0.1305,0.1332,0.1332,0.1334,0.1347,0.1348,0.1349,0.135,0.135,0.1407,0.1408,0,0,0,0,0,0,0.1273,0.1274,0.1287,0.1288,0.1285,0.1293,0.1295,0.1297,0.1313,0.1316,0.1305,0.1306,0.133,0.1333,0.1336,0.1376,0.1349,0.135,0.1351,0.1406,0.1407,0.1408,0,0,0,0,0,0,0.1273,0.1274,0.1286,0.1282,0.1283,0.1293,0.1296,0.1297,0.1309,0.1316,0.1319,0.1317,0.1331,0.1334,0.1359,0.1376,0.1351,0.1352,0.1405,0.1406,0.1408,0.143,0,0,0,0,0,0,0.1272,0.1274,0.1278,0.1282,0.1284,0.1291,0.1295,0.1297,0.131,0.1311,0.1327,0.133,0.1331,0.1358,0.136,0.1377,0.1352,0.1404,0.1406,0.1407,0.1428,0.1432,0.1436,0,0,0,0,0,0.1272,0.1271,0.1279,0.128,0.1288,0.1291,0.1292,0.13,0.131,0.1313,0.1332,0.133,0.137,0.1359,0.1362,0.1379,0.1403,0.1405,0.1407,0.1427,0.1431,0.1435,0,0,0,0,0,0,0.1258,0.1273,0.1281,0.1283,0.1291,0.1294,0.13,0.1307,0.1323,0.1332,0.134,0.1344,0.1368,0.1373,0.1361,0.1402,0.1387,0.1389,0.1401,0.1405,0.1409,0.1407,0.1353,0,0,0,0,0,0.126,0.1273,0.1278,0.1284,0.1288,0.1298,0.1303,0.131,0.1322,0.133,0.1343,0.1361,0.1376,0.1391,0.1399,0.1424,0.1434,0.1438,0.1442,0.1445,0.1446,0.148,0.1487,0.1415,0.1415,0.1415,0,0,0.1251,0.1268,0.127,0.1284,0.1293,0.13,0.1302,0.1314,0.1329,0.1332,0.1362,0.137,0.1384,0.1409,0.1421,0.1419,0.1471,0.1447,0.145,0.1449,0.1483,0.149,0.1496,0.1416,0.1416,0.1416,0,0,0.1248,0.1262,0.1271,0.1279,0.1299,0.1309,0.1315,0.1327,0.1343,0.1371,0.1376,0.1398,0.1425,0.1436,0.1447,0.1477,0.1483,0.1482,0.1507,0.154,0.1546,0.1551,0.1575,0.1582,0.1492,0.1492,0.1492,0,0.1253,0.1255,0.1272,0.1283,0.1292,0.1315,0.132,0.134,0.1362,0.1377,0.1386,0.1428,0.1439,0.1469,0.1482,0.1484,0.1502,0.1488,0.1544,0.155,0.1555,0.1578,0.1586,0.1493,0.1493,0.1493,0.1493,0,0.1245,0.1254,0.1261,0.129,0.13,0.1311,0.1336,0.1357,0.1387,0.1405,0.1444,0.1463,0.1491,0.1498,0.1502,0.1543,0.1543,0.1538,0.1532,0.1564,0.1586,0.1594,0.1495,0.1494,0.1494,0.1494,0,0,0.1244,0.1257,0.126,0.1268,0.1305,0.131,0.1346,0.1377,0.141,0.144,0.148,0.1507,0.1524,0.1537,0.1547,0.1576,0.1629,0.1579,0.158,0.1599,0.1703,0.1622,0.1623,0.1639,0.164,0.1641,0.1704,0,0.1243,0.1255,0.1265,0.1278,0.1284,0.1315,0.135,0.1384,0.1428,0.1475,0.1506,0.1547,0.1541,0.1565,0.1594,0.1616,0.1651,0.1612,0.1671,0.1673,0.1595,0.1629,0.1472,0.1507,0.1711,0.1712,0.1713,0,0.123,0.1242,0.1253,0.1277,0.1284,0.1307,0.1364,0.1394,0.1464,0.1499,0.1544,0.1577,0.1623,0.162,0.1682,0.166,0.1688,0.1703,0.1706,0.1627,0.1606,0.1509,0.1514,0.1726,0.1725,0.1724,0.1723,0,0.1212,0.123,0.1243,0.125,0.1288,0.131,0.134,0.1405,0.1445,0.1519,0.1563,0.1615,0.1657,0.1695,0.1729,0.1718,0.1795,0.1784,0.1737,0.1731,0.1605,0.1585,0.1837,0.1837,0.1837,0.1837,0.1837,0,0.1203,0.1201,0.124,0.1242,0.1274,0.1303,0.1358,0.1393,0.1469,0.1512,0.1578,0.1619,0.1682,0.1731,0.1752,0.1762,0.1817,0.1744,0.1744,0.1607,0.1588,0.1781,0.1773,0.1839,0.1839,0.1838,0.1838,0,0.1171,0.1191,0.1201,0.1246,0.1266,0.1287,0.136,0.1394,0.1471,0.1532,0.1559,0.1642,0.1687,0.1741,0.1802,0.1784,0.1805,0.1799,0.1627,0.1603,0.1716,0.171,0.1752,0.1749,0.1748,0.1746,0.1745,0,0.1147,0.1168,0.1206,0.1219,0.1242,0.1286,0.1319,0.1388,0.1418,0.1527,0.1542,0.1627,0.165,0.1709,0.1696,0.1715,0.1776,0.1577,0.1517,0.1713,0.1709,0.1705,0.1701,0.137,0.1365,0.1362,0.1359,0,0.1123,0.1154,0.116,0.1195,0.1224,0.1261,0.1306,0.133,0.1402,0.1446,0.1488,0.1523,0.1573,0.1503,0.1531,0.1518,0.1554,0.1503,0.1771,0.1403,0.1354,0.1349,0.1358,0.1328,0.1331,0.1333,0.1335,0.1336,0.1109,0.1114,0.1142,0.1169,0.1198,0.1228,0.1222,0.126,0.1288,0.1311,0.1373,0.1362,0.1378,0.1323,0.1287,0.1262,0.1377,0.1308,0.1319,0.1334,0.1265,0.1214,0.1149,0.1151,0.1153,0.1154,0.1156,0,0.1089,0.1103,0.1119,0.1136,0.1141,0.1184,0.12,0.1169,0.1147,0.1173,0.1176,0.1072,0.1025,0.1062,0.0969,0.0964,0.096,0.0921,0.0904,0.0935,0.0963,0.0876,0.0657,0.0655,0.0654,0.0653,0,0,0.1082,0.1057,0.1064,0.1069,0.1094,0.1066,0.1054,0.1007,0.0988,0.0935,0.0903,0.0962,0.101,0.0822,0.0791,0.0708,0.0816,0.0672,0.1069,0.1079,0.1105,0.1179,0.1079,0,0,0,0,0]},{"header":{"parameterUnit":"m.s-1","parameterCategory":2,"la1":30.2991,"la2":30.254,"lo1":-89.0895,"lo2":-89.0444,"dy":0.0017,"dx":0.0017,"nx":28,"ny":28,"refTime":"2024-03-15T03:00:00:Z","depth":"2","parameterNumber":3,"parameterNumberName":"V-component_of_CURRENTS"},"data":[0,0,0,0,0,0,0,0,0,0,0,0,0,0,0,0,0,0,0,0,0,0,0,0,0,0,0,0,0,0,0,0,0,0,0,0,0,0,0,0,0,0,0,0,0,0,0,0,0,0,0,0,0,0,0,0,0,0,0.0103,0.0103,0,0.0094,0.0094,0.0094,0.0085,0.0085,0.0085,0.0084,0.004,0.0039,0.0038,0,0,0,0,0,0,0,0,0,0,0,0,0,0.0119,0.0119,0.0103,0.0103,0.0103,0.0094,0.0094,0.0094,0.0085,0.0085,0.0085,0.0084,0.004,0.0039,0.0038,0,0,0,0,0,0,0,0,0,0,0,0,0,0.0113,0.0119,0.0103,0.0096,0.0095,0.0094,0.0094,0.0094,0.0085,0.0085,0.0084,0.0084,0.004,0.0039,0.0038,0.0038,0,0,0.0034,0.0033,0,0,0,0,0,0,0,0,0.0113,0.0113,0.0097,0.0096,0.0095,0.0088,0.0083,0.0073,0.0085,0.0091,0.0084,0.0084,0.0052,0.0049,0.0052,0.0036,0.0034,0.0033,0.0033,0.0032,0.0032,0,0,0,0,0,0,0,0.0114,0.0113,0.0102,0.0097,0.0095,0.0094,0.0093,0.0081,0.0075,0.0091,0.0089,0.0085,0.0051,0.0054,0.0051,0.0034,0.0034,0.0032,0.0031,0.0031,0.001,0.0011,0,0,0,0,0,0,0.0111,0.0113,0.0102,0.0101,0.0101,0.0094,0.0093,0.0093,0.0076,0.0073,0.0086,0.0085,0.0056,0.0053,0.0049,0.005,0.0032,0.0031,0.003,0.001,0.001,0.0011,0,0,0,0,0,0,0.0111,0.011,0.0102,0.0105,0.0104,0.0094,0.0094,0.0093,0.009,0.0072,0.0068,0.0083,0.0056,0.0051,0.0039,0.0048,0.003,0.0029,0.001,0.001,0.0011,0.0052,0,0,0,0,0,0,0.0112,0.0111,0.0108,0.0105,0.0103,0.0105,0.0094,0.0093,0.0087,0.0086,0.0069,0.0065,0.0055,0.0041,0.0038,0.0046,0.0028,0.0009,0.001,0.001,0.005,0.0053,0.0056,0,0,0,0,0,0.0113,0.0115,0.0108,0.0106,0.0101,0.0105,0.0105,0.0097,0.0087,0.0092,0.0078,0.0065,0.0042,0.0041,0.0036,0.0044,0.0009,0.001,0.001,0.0048,0.0053,0.0056,0,0,0,0,0,0,0.0121,0.0114,0.0106,0.0106,0.0105,0.0103,0.0106,0.0096,0.009,0.0085,0.0067,0.0063,0.0057,0.0043,0.0042,0.0039,0.0024,0.0024,0.0054,0.0058,0.0061,0.007,0.0027,0,0,0,0,0,0.0121,0.0118,0.0115,0.0112,0.0116,0.0109,0.0108,0.0102,0.0095,0.0092,0.0079,0.0065,0.0058,0.0051,0.0042,0.0038,0.0029,0.0041,0.0044,0.0047,0.0051,0.0045,0.0048,0.0013,0.0013,0.0013,0,0,0.0124,0.0116,0.0116,0.0113,0.0113,0.0123,0.0108,0.0109,0.0113,0.0087,0.0087,0.0074,0.0059,0.006,0.0056,0.0048,0.0052,0.0047,0.005,0.0052,0.0046,0.0049,0.0052,0.0013,0.0013,0.0013,0,0,0.0133,0.0125,0.013,0.0134,0.0131,0.0128,0.0128,0.0126,0.0123,0.0119,0.0105,0.0096,0.0081,0.0078,0.0073,0.0085,0.007,0.0081,0.0105,0.0099,0.0102,0.0105,0.0102,0.0104,0.0083,0.0083,0.0083,0,0.013,0.0142,0.0133,0.0144,0.0149,0.0133,0.0149,0.0146,0.0136,0.0139,0.0122,0.011,0.0091,0.0101,0.0105,0.0093,0.0089,0.0093,0.0104,0.0107,0.0108,0.0105,0.0106,0.0085,0.0085,0.0085,0.0084,0,0.0154,0.0161,0.0168,0.0174,0.0179,0.0189,0.0187,0.0187,0.0174,0.017,0.0171,0.0149,0.0143,0.0137,0.0122,0.0132,0.0124,0.011,0.0097,0.0115,0.0109,0.011,0.0088,0.0087,0.0087,0.0086,0,0,0.0153,0.0178,0.0181,0.0197,0.0198,0.0209,0.0215,0.0225,0.0236,0.0218,0.0233,0.0213,0.0198,0.0191,0.0174,0.0167,0.0171,0.0146,0.0145,0.0148,0.0164,0.0161,0.0162,0.0161,0.0162,0.0162,0.0157,0,0.0172,0.0204,0.0209,0.0241,0.0262,0.0257,0.0268,0.0271,0.0265,0.0274,0.0254,0.0257,0.0221,0.022,0.0206,0.0184,0.0175,0.0174,0.0143,0.0142,0.0141,0.0163,0.0173,0.017,0.0158,0.0158,0.0158,0,0.0197,0.0215,0.0251,0.0285,0.0296,0.0309,0.0332,0.034,0.0343,0.0339,0.0333,0.0315,0.0307,0.0269,0.0237,0.024,0.0203,0.0181,0.018,0.0164,0.0141,0.0148,0.0171,0.0159,0.0159,0.0159,0.0159,0,0.021,0.0248,0.0278,0.029,0.032,0.0337,0.0353,0.0361,0.0379,0.0384,0.0396,0.0374,0.037,0.0326,0.0268,0.0255,0.0234,0.0208,0.0171,0.0171,0.0166,0.0164,0.0181,0.0181,0.0181,0.0181,0.0181,0,0.0232,0.0263,0.0291,0.031,0.0354,0.0364,0.0406,0.0414,0.0432,0.047,0.0433,0.0456,0.0383,0.0359,0.0296,0.0244,0.0253,0.0183,0.0172,0.018,0.018,0.0157,0.0154,0.0181,0.0181,0.0181,0.0181,0,0.0251,0.0267,0.0309,0.0346,0.0362,0.0395,0.0448,0.0483,0.0486,0.0535,0.0541,0.0522,0.0496,0.0422,0.0356,0.0289,0.0234,0.0209,0.0225,0.0215,0.0166,0.0165,0.0171,0.0171,0.0171,0.0171,0.0171,0,0.0271,0.0283,0.0332,0.0363,0.0386,0.0436,0.0478,0.0506,0.0549,0.0585,0.062,0.06,0.0603,0.0502,0.0388,0.0287,0.0255,0.0214,0.0184,0.0178,0.0166,0.0166,0.0165,0.0193,0.0193,0.0194,0.0194,0,0.0299,0.0305,0.0343,0.0396,0.0449,0.0513,0.0577,0.0614,0.066,0.07,0.075,0.0752,0.0659,0.0561,0.041,0.0333,0.0231,0.0213,0.0212,0.0194,0.0198,0.0187,0.0185,0.0195,0.0195,0.0195,0.0194,0.0194,0.0326,0.0349,0.0386,0.0441,0.0502,0.0581,0.0641,0.0712,0.0785,0.0839,0.084,0.0831,0.0717,0.0522,0.0398,0.0249,0.0256,0.0187,0.0187,0.0187,0.019,0.0194,0.019,0.019,0.019,0.019,0.019,0,0.0358,0.038,0.0429,0.0504,0.0571,0.0602,0.0702,0.0761,0.0853,0.0887,0.0918,0.0794,0.0685,0.0538,0.0331,0.0216,0.0195,0.0161,0.0165,0.0165,0.0166,0.0167,0.0161,0.016,0.016,0.0159,0,0,0.0374,0.0435,0.045,0.055,0.06,0.0699,0.0758,0.0841,0.0881,0.0914,0.0892,0.0869,0.0713,0.0552,0.0403,0.0281,0.0242,0.0247,0.0286,0.0309,0.0311,0.02,0.0205,0,0,0,0,0]}],[{"header":{"parameterUnit":"m.s-1","parameterCategory":2,"la1":30.2991,"la2":30.254,"lo1":-89.0895,"lo2":-89.0444,"dy":0.0017,"dx":0.0017,"nx":28,"ny":28,"refTime":"2024-03-15T03:00:00:Z","depth":"4","parameterNumber":2,"parameterNumberName":"U-component_of_CURRENTS"},"data":[0,0,0,0,0,0,0,0,0,0,0,0,0,0,0,0,0,0,0,0,0,0,0,0,0,0,0,0,0,0,0,0,0,0,0,0,0,0,0,0,0,0,0,0,0,0,0,0,0,0,0,0,0,0,0,0,0,0,0.0529,0.053,0,0.0566,0.0566,0.0566,0.059,0.0591,0.0591,0.0591,0.0634,0.0635,0.0636,0,0,0,0,0,0,0,0,0,0,0,0,0,0.0484,0.0485,0.0529,0.053,0.053,0.0566,0.0566,0.0567,0.059,0.0591,0.0591,0.0592,0.0634,0.0635,0.0636,0,0,0,0,0,0,0,0,0,0,0,0,0,0.0508,0.0485,0.0529,0.0548,0.0551,0.0566,0.0566,0.0567,0.059,0.0591,0.0591,0.0592,0.0634,0.0635,0.0636,0.0632,0,0,0.064,0.064,0,0,0,0,0,0,0,0,0.0507,0.0509,0.0545,0.0547,0.055,0.0576,0.0566,0.059,0.059,0.0572,0.0591,0.0592,0.0617,0.0619,0.0621,0.0634,0.0636,0.064,0.0641,0.0641,0.0641,0,0,0,0,0,0,0,0.0505,0.0508,0.0541,0.0546,0.0549,0.0557,0.0561,0.0571,0.0589,0.0574,0.0576,0.0585,0.0618,0.062,0.0623,0.0636,0.064,0.0641,0.0642,0.0642,0.0709,0.071,0,0,0,0,0,0,0.0505,0.0506,0.054,0.0542,0.0532,0.0558,0.0562,0.0565,0.0589,0.0594,0.0584,0.0586,0.0618,0.0621,0.0624,0.0673,0.0641,0.0642,0.0643,0.0708,0.071,0.0711,0,0,0,0,0,0,0.0504,0.0507,0.0538,0.0528,0.0533,0.0558,0.0562,0.0566,0.0585,0.0597,0.0602,0.0601,0.0618,0.0623,0.0648,0.0672,0.0643,0.0644,0.0707,0.0709,0.071,0.0736,0,0,0,0,0,0,0.0502,0.0506,0.0515,0.0527,0.0533,0.0554,0.0562,0.0566,0.0589,0.0592,0.0613,0.0617,0.0619,0.0647,0.065,0.0674,0.0645,0.0706,0.0708,0.071,0.0734,0.0738,0.0742,0,0,0,0,0,0.05,0.0505,0.0515,0.052,0.0542,0.0554,0.0558,0.0576,0.059,0.0596,0.0616,0.0617,0.0662,0.0648,0.0651,0.0676,0.0705,0.0707,0.071,0.0732,0.0737,0.0742,0,0,0,0,0,0,0.0492,0.0509,0.052,0.0531,0.0547,0.0559,0.0574,0.0585,0.0605,0.0616,0.0625,0.063,0.0658,0.0666,0.065,0.0703,0.0686,0.0689,0.0702,0.0707,0.0711,0.0696,0.0646,0,0,0,0,0,0.0495,0.0501,0.052,0.053,0.0542,0.0562,0.0573,0.0586,0.0603,0.0613,0.0631,0.0653,0.0668,0.0686,0.0695,0.0725,0.0731,0.0746,0.075,0.0754,0.0745,0.0776,0.0782,0.0719,0.0719,0.0719,0,0,0.0491,0.0505,0.0507,0.0529,0.0546,0.0561,0.057,0.0592,0.0608,0.0615,0.065,0.0663,0.0676,0.0706,0.0722,0.0719,0.0778,0.0757,0.076,0.0748,0.0779,0.0785,0.079,0.072,0.072,0.072,0,0,0.0491,0.0506,0.0516,0.0529,0.056,0.0571,0.0582,0.0608,0.0627,0.0656,0.0667,0.0691,0.0723,0.0735,0.0745,0.0778,0.0791,0.0796,0.0816,0.0847,0.0852,0.0856,0.0883,0.0889,0.0809,0.0809,0.0809,0,0.0494,0.0505,0.0521,0.0538,0.0551,0.0578,0.0593,0.0613,0.0645,0.0663,0.0672,0.0721,0.0731,0.0763,0.0778,0.0786,0.0809,0.0794,0.0851,0.0856,0.086,0.0886,0.0893,0.081,0.081,0.081,0.081,0,0.0499,0.0514,0.0523,0.055,0.0565,0.0581,0.0611,0.064,0.0669,0.0688,0.073,0.0747,0.0781,0.0792,0.0795,0.0837,0.0846,0.0844,0.0835,0.0867,0.0893,0.09,0.0813,0.0812,0.0812,0.0811,0,0,0.0493,0.052,0.0526,0.0537,0.0573,0.0583,0.0621,0.0655,0.0684,0.0722,0.076,0.0786,0.0809,0.082,0.0838,0.0862,0.0913,0.0874,0.0875,0.0895,0.0992,0.0911,0.0911,0.0933,0.0934,0.0935,0.1002,0,0.0499,0.0519,0.0534,0.0554,0.0568,0.0599,0.0626,0.0662,0.0702,0.0748,0.078,0.0817,0.0819,0.0846,0.0874,0.0898,0.0931,0.0895,0.0962,0.0963,0.0883,0.0916,0.0938,0.1007,0.1008,0.1009,0.101,0,0.0502,0.0516,0.0534,0.0555,0.0566,0.0585,0.0636,0.0664,0.073,0.0765,0.0817,0.0846,0.0893,0.089,0.0954,0.0939,0.097,0.0983,0.0986,0.0901,0.0894,0.0966,0.1022,0.1021,0.102,0.102,0.1019,0,0.0482,0.0512,0.0523,0.053,0.0565,0.0589,0.0617,0.0675,0.0706,0.0787,0.0826,0.0881,0.0927,0.0963,0.1,0.0992,0.1063,0.1057,0.1012,0.1008,0.1048,0.1042,0.1103,0.1103,0.1103,0.1103,0.1103,0,0.0467,0.0477,0.0519,0.0523,0.0549,0.0581,0.0619,0.0665,0.0729,0.0768,0.0841,0.0882,0.0951,0.1,0.1021,0.1035,0.109,0.1012,0.1017,0.106,0.1055,0.1054,0.1047,0.1105,0.1105,0.1104,0.1104,0,0.0434,0.0457,0.0476,0.0521,0.0539,0.0562,0.0616,0.0642,0.0717,0.0778,0.0807,0.0902,0.0964,0.1017,0.1079,0.1058,0.1074,0.107,0.1116,0.1124,0.0995,0.0989,0.1021,0.1018,0.1016,0.1015,0.1013,0,0.0412,0.0419,0.0472,0.0487,0.0511,0.0548,0.0572,0.0637,0.0663,0.0775,0.0797,0.0893,0.0949,0.0981,0.1033,0.1069,0.1059,0.1061,0.1012,0.0983,0.0986,0.0983,0.098,0.101,0.101,0.1009,0.1009,0,0.0376,0.0404,0.0423,0.0456,0.0485,0.0504,0.0545,0.0557,0.0634,0.0712,0.0772,0.0818,0.0893,0.0937,0.0979,0.0998,0.1047,0.104,0.1044,0.0998,0.0971,0.0975,0.0974,0.1002,0.1003,0.1003,0.1004,0,0.0358,0.0366,0.0396,0.0421,0.0445,0.0449,0.0476,0.0508,0.0544,0.0666,0.0681,0.0793,0.0878,0.0901,0.0932,0.0948,0.0932,0.0894,0.0905,0.0913,0.0844,0.0792,0.0772,0,0,0,0,0,0.0341,0.0343,0.0356,0.0375,0.039,0.041,0.0448,0.0475,0.0554,0.0576,0.0626,0.069,0.0756,0.0806,0.0803,0.0878,0.0929,0.0869,0.0887,0.0964,0.0972,0.0899,0,0,0,0,0,0,0.0331,0.0341,0.0343,0.0324,0.0329,0.0341,0.0366,0.0421,0.0429,0.0522,0.0562,0.064,0.0714,0.0761,0.0793,0.0807,0.0799,0.0933,0.0931,0.0959,0.0967,0.0973,0.0901,0,0,0,0,0]},{"header":{"parameterUnit":"m.s-1","parameterCategory":2,"la1":30.2991,"la2":30.254,"lo1":-89.0895,"lo2":-89.0444,"dy":0.0017,"dx":0.0017,"nx":28,"ny":28,"refTime":"2024-03-15T03:00:00:Z","depth":"4","parameterNumber":3,"parameterNumberName":"V-component_of_CURRENTS"},"data":[0,0,0,0,0,0,0,0,0,0,0,0,0,0,0,0,0,0,0,0,0,0,0,0,0,0,0,0,0,0,0,0,0,0,0,0,0,0,0,0,0,0,0,0,0,0,0,0,0,0,0,0,0,0,0,0,0,0,0.0175,0.0175,0,0.0169,0.0169,0.017,0.0168,0.0168,0.0168,0.0167,0.0142,0.0141,0.014,0,0,0,0,0,0,0,0,0,0,0,0,0,0.0185,0.0185,0.0175,0.0175,0.0175,0.0169,0.0169,0.017,0.0168,0.0168,0.0167,0.0167,0.0142,0.0141,0.014,0,0,0,0,0,0,0,0,0,0,0,0,0,0.0182,0.0185,0.0175,0.0172,0.0172,0.0169,0.0169,0.017,0.0168,0.0168,0.0167,0.0167,0.0142,0.0141,0.014,0.0139,0,0,0.0138,0.0137,0,0,0,0,0,0,0,0,0.0182,0.0181,0.0173,0.0172,0.0172,0.0168,0.0163,0.0158,0.0168,0.0171,0.0167,0.0167,0.0147,0.0146,0.0148,0.0138,0.0136,0.0138,0.0137,0.0137,0.0136,0,0,0,0,0,0,0,0.0182,0.0182,0.0175,0.0173,0.0172,0.0171,0.017,0.0162,0.0161,0.0171,0.017,0.0167,0.0147,0.0149,0.0147,0.0136,0.0138,0.0137,0.0136,0.0136,0.0124,0.0124,0,0,0,0,0,0,0.018,0.0182,0.0175,0.0174,0.0174,0.017,0.017,0.0171,0.0162,0.016,0.0167,0.0167,0.0151,0.0148,0.0146,0.0154,0.0137,0.0136,0.0135,0.0124,0.0124,0.0124,0,0,0,0,0,0,0.018,0.0179,0.0175,0.0176,0.0176,0.017,0.0171,0.017,0.0172,0.0159,0.0157,0.0169,0.015,0.0148,0.0144,0.0152,0.0136,0.0135,0.0124,0.0124,0.0124,0.0161,0,0,0,0,0,0,0.018,0.0179,0.0181,0.0176,0.0175,0.0177,0.0171,0.017,0.0169,0.0169,0.016,0.0157,0.015,0.0145,0.0143,0.0151,0.0134,0.0123,0.0124,0.0124,0.016,0.0163,0.0165,0,0,0,0,0,0.0181,0.0186,0.0181,0.018,0.0177,0.0177,0.0176,0.0173,0.017,0.0173,0.0168,0.0158,0.0146,0.0145,0.0142,0.015,0.0123,0.0124,0.0124,0.0159,0.0162,0.0165,0,0,0,0,0,0,0.0189,0.0186,0.018,0.0183,0.018,0.0176,0.0179,0.0174,0.0173,0.0174,0.0161,0.0158,0.0158,0.0147,0.0146,0.0146,0.0132,0.0132,0.0159,0.0163,0.0165,0.0177,0.0133,0,0,0,0,0,0.0191,0.0195,0.0188,0.0189,0.019,0.0184,0.0183,0.0181,0.0178,0.0177,0.0168,0.016,0.0158,0.0155,0.0148,0.0148,0.0136,0.015,0.0153,0.0156,0.0163,0.0152,0.0155,0.0126,0.0126,0.0126,0,0,0.0195,0.0192,0.0194,0.0191,0.019,0.0196,0.0184,0.0186,0.0193,0.0174,0.0179,0.0169,0.0159,0.0163,0.0161,0.0155,0.0157,0.0156,0.0159,0.0164,0.0153,0.0155,0.0158,0.0126,0.0126,0.0126,0,0,0.0205,0.0202,0.0209,0.021,0.0207,0.0205,0.0206,0.0202,0.0203,0.0205,0.0195,0.0192,0.0182,0.0181,0.0179,0.0192,0.0171,0.0185,0.021,0.02,0.0202,0.0204,0.019,0.0191,0.0187,0.0187,0.0187,0,0.0207,0.0217,0.0211,0.0218,0.0224,0.0211,0.0224,0.0223,0.0217,0.0222,0.0211,0.0206,0.0195,0.0206,0.021,0.02,0.0187,0.02,0.0204,0.0206,0.0207,0.0192,0.0193,0.0189,0.0189,0.0189,0.0188,0,0.0225,0.0233,0.0238,0.0245,0.025,0.0259,0.0258,0.026,0.0257,0.0254,0.026,0.0246,0.0243,0.0238,0.023,0.0236,0.0221,0.0209,0.0198,0.0212,0.0196,0.0195,0.0192,0.0191,0.019,0.019,0,0,0.0229,0.0248,0.025,0.0263,0.0268,0.0277,0.0289,0.0299,0.0311,0.03,0.0315,0.0308,0.0295,0.0292,0.0276,0.0269,0.0266,0.0245,0.0244,0.0236,0.0238,0.0221,0.0218,0.0252,0.0252,0.0252,0.0222,0,0.0243,0.027,0.0275,0.0303,0.0318,0.0319,0.0335,0.0342,0.0341,0.0348,0.0337,0.0341,0.0317,0.0316,0.0305,0.0277,0.0266,0.0275,0.0222,0.022,0.0206,0.0218,0.0253,0.0221,0.0221,0.0221,0.0221,0,0.026,0.0275,0.0308,0.034,0.0348,0.0366,0.0392,0.0404,0.0409,0.0407,0.0404,0.0388,0.0381,0.0354,0.0316,0.0321,0.0284,0.0259,0.0257,0.0229,0.0202,0.0203,0.022,0.022,0.022,0.022,0.022,0,0.027,0.0302,0.0332,0.0342,0.0371,0.0393,0.0412,0.0425,0.0443,0.0446,0.0453,0.0433,0.0428,0.0383,0.0326,0.032,0.0278,0.0261,0.0211,0.0209,0.0218,0.0216,0.0234,0.0234,0.0234,0.0234,0.0234,0,0.0285,0.0311,0.0343,0.0359,0.0401,0.0417,0.0461,0.0469,0.0489,0.0512,0.0486,0.049,0.0434,0.0399,0.0341,0.0276,0.0287,0.022,0.0203,0.0233,0.0233,0.0217,0.0215,0.0233,0.0233,0.0233,0.0233,0,0.0294,0.0313,0.0349,0.0389,0.0407,0.0439,0.0496,0.0525,0.0535,0.0563,0.0566,0.0537,0.049,0.0428,0.0356,0.0299,0.0236,0.0208,0.0247,0.0232,0.0169,0.017,0.0152,0.0152,0.0151,0.015,0.015,0,0.0303,0.032,0.037,0.0396,0.0419,0.0472,0.051,0.0544,0.0573,0.0588,0.06,0.0566,0.0536,0.0424,0.0352,0.0244,0.0223,0.0185,0.0176,0.0178,0.0163,0.0164,0.0166,0.0149,0.0149,0.0148,0.0148,0,0.0315,0.0331,0.036,0.0411,0.0459,0.0515,0.0571,0.0593,0.0629,0.0638,0.0623,0.0564,0.0511,0.042,0.0339,0.0259,0.0208,0.0178,0.0178,0.017,0.0173,0.0159,0.0161,0.0146,0.0146,0.0146,0.0146,0,0.0324,0.0344,0.0379,0.0427,0.0485,0.0543,0.0575,0.0611,0.064,0.0649,0.0641,0.058,0.0547,0.0427,0.0351,0.0274,0.0247,0.021,0.0208,0.021,0.0232,0.0245,0.023,0,0,0,0,0,0.0331,0.0354,0.0394,0.0447,0.0505,0.0543,0.0608,0.0635,0.0665,0.0655,0.0648,0.0593,0.0478,0.0431,0.035,0.0335,0.0235,0.0236,0.0191,0.0133,0.0135,0.0149,0,0,0,0,0,0,0.0334,0.0373,0.039,0.0457,0.0494,0.0566,0.0611,0.0633,0.0628,0.0636,0.0579,0.0554,0.0447,0.052,0.034,0.0318,0.0274,0.0187,0.0185,0.0131,0.0134,0.0136,0.015,0,0,0,0,0]}]]